DW6222 Weather Reports


Display with metric or nautical units.
time (UTC)temp
F
wind
direction
speed
MPH
gust
MPH
rain 1hr
in
rain 24hr
in
rain mn
in
humidity
%
barometer
mb
20260906224554 73 84 2.0 9.0 0.00 0.00 0.00 83 1017.7
20260906223059 73 96 5.0 9.0 0.00 0.00 0.00 84 1017.6
20260906221556 73 113 4.0 9.0 0.00 0.00 0.00 86 1017.5
20260906220050 74 113 5.0 10.0 0.00 0.00 0.00 86 1017.4
20260906214557 74 137 6.0 9.0 0.00 0.00 0.00 85 1017.6
20260906213104 75 116 7.0 9.0 0.00 0.00 0.00 83 1017.7
20260906211603 77 108 4.0 13.0 0.00 0.00 0.00 79 1017.7
20260906210052 76 59 4.0 10.0 0.00 0.00 0.00 78 1017.8
20260906204554 75 61 5.0 11.0 0.00 0.00 0.00 78 1017.9
20260906203100 75 62 6.0 11.0 0.00 0.00 0.00 78 1017.7
20260906201559 75 67 6.0 11.0 0.00 0.00 0.00 79 1017.8
20260906200053 75 47 6.0 12.0 0.00 0.00 0.00 79 1017.7
20260906194557 74 41 6.0 12.0 0.00 0.00 0.00 80 1017.8
20260906193104 74 69 5.0 10.0 0.00 0.00 0.00 81 1017.8
20260906191602 74 50 5.0 12.0 0.00 0.00 0.00 82 1018.0
20260906190052 73 66 5.0 13.0 0.00 0.00 0.00 84 1018.0
20260906184551 73 19 8.0 14.0 0.00 0.00 0.00 84 1018.0
20260906183046 73 26 5.0 11.0 0.00 0.00 0.00 83 1018.1
20260906181633 73 49 8.0 13.0 0.00 0.00 0.00 83 1018.2
20260906180052 73 38 4.0 11.0 0.00 0.00 0.00 83 1018.5
20260906174558 72 50 7.0 12.0 0.00 0.00 0.00 85 1018.6
20260906173056 71 67 7.0 11.0 0.00 0.00 0.00 85 1018.7
20260906171607 71 55 6.0 10.0 0.00 0.00 0.00 86 1019.0
20260906170103 71 62 6.0 10.0 0.00 0.00 0.00 87 1019.1
20260906164548 69 26 3.0 7.0 0.00 0.00 0.00 91 1019.0
20260906163059 68 233 2.0 5.0 0.00 0.00 0.00 92 1019.0
20260906161554 69 233 3.0 5.0 0.00 0.00 0.00 89 1019.1
20260906160051 70 304 2.0 5.0 0.00 0.00 0.00 90 1019.1
20260906154546 69 313 2.0 4.0 0.00 0.00 0.00 91 1019.1
20260906153055 68 277 2.0 4.0 0.00 0.00 0.00 91 1018.9
20260906151555 68 219 1.0 2.0 0.00 0.00 0.00 91 1019.0
20260906150050 68 0 1.0 4.0 0.00 0.00 0.00 92 1019.0
20260906144603 67 313 2.0 5.0 0.00 0.00 0.00 93 1019.1
20260906143107 67 0 0.0 0.0 0.00 0.00 0.00 94 1019.1
20260906141554 67 0 0.0 0.0 0.00 0.00 0.00 94 1019.4
20260906140046 67 0 0.0 0.0 0.00 0.00 0.00 94 1019.5
20260906134554 66 0 0.0 0.0 0.00 0.00 0.00 94 1019.5
20260906133103 66 0 0.0 0.0 0.00 0.00 0.00 94 1019.5
20260906131542 66 0 0.0 0.0 0.00 0.00 0.00 97 1019.3
20260906130104 64 0 0.0 0.0 0.00 0.00 0.00 97 1019.2
20260906124552 64 0 0.0 0.0 0.00 0.00 0.00 97 1019.2
20260906123046 63 0 0.0 0.0 0.00 0.00 0.00 97 1019.2
20260906121556 63 0 0.0 0.0 0.00 0.00 0.00 97 1019.1
20260906120057 62 0 0.0 0.0 0.00 0.00 0.00 98 1018.9
20260906114557 62 0 0.0 1.0 0.00 0.00 0.00 97 1018.4
20260906113049 62 0 0.0 2.0 0.00 0.00 0.00 97 1018.3
20260906111600 62 0 0.0 2.0 0.00 0.00 0.00 96 1018.2
20260906110057 63 0 0.0 0.0 0.00 0.00 0.00 96 1018.1
20260906104558 63 0 1.0 3.0 0.00 0.00 0.00 97 1018.0
20260906103045 63 267 2.0 4.0 0.00 0.00 0.00 97 1018.0
20260906101557 63 249 3.0 4.0 0.00 0.00 0.00 97 1018.0
20260906100055 63 274 5.0 7.0 0.00 0.00 0.00 96 1017.7
20260906094605 63 250 5.0 8.0 0.00 0.00 0.00 96 1017.8
20260906093131 63 292 1.0 4.0 0.00 0.00 0.00 96 1017.7
20260906091606 63 290 4.0 8.0 0.00 0.00 0.00 96 1018.1
20260906090052 63 292 4.0 7.0 0.00 0.00 0.00 96 1018.0
20260906084545 64 0 0.0 3.0 0.00 0.01 0.00 96 1018.1
20260906083050 63 0 0.0 3.0 0.00 0.01 0.00 96 1018.1
20260906081545 63 309 0.0 2.0 0.00 0.01 0.00 95 1018.1
20260906080056 63 0 0.0 2.0 0.00 0.01 0.00 95 1018.2
20260906074553 64 309 2.0 5.0 0.00 0.02 0.00 95 1018.0
20260906073048 64 297 4.0 5.0 0.00 0.02 0.00 94 1018.2
20260906071557 65 9 2.0 4.0 0.00 0.02 0.00 93 1018.2
20260906070056 65 360 2.0 5.0 0.00 0.02 0.00 93 1018.1
20260906064550 65 20 1.0 4.0 0.00 0.03 0.00 92 1018.2
20260906063058 65 5 2.0 4.0 0.00 0.03 0.00 92 1018.2
20260906061558 65 0 0.0 6.0 0.00 0.03 0.00 92 1018.2
20260906060054 65 31 6.0 10.0 0.00 0.03 0.00 92 1018.0
20260906054610 65 32 4.0 9.0 0.00 0.03 0.00 92 1017.9
20260906053045 66 34 3.0 6.0 0.00 0.03 0.00 90 1017.9
20260906051605 66 18 1.0 5.0 0.00 0.03 0.00 91 1018.0
20260906050104 66 31 2.0 4.0 0.00 0.03 0.00 91 1017.9
20260906044553 66 0 0.0 3.0 0.00 0.03 0.03 91 1017.9
20260906043058 66 30 1.0 4.0 0.00 0.03 0.03 91 1018.0
20260906041555 66 13 2.0 6.0 0.00 0.03 0.03 91 1017.9
20260906040101 66 31 3.0 7.0 0.00 0.03 0.03 91 1017.7
20260906034545 66 44 3.0 6.0 0.00 0.03 0.03 91 1017.4
20260906033056 66 57 5.0 11.0 0.00 0.03 0.03 91 1017.5
20260906031552 66 16 5.0 10.0 0.00 0.03 0.03 90 1018.0
20260906030051 66 26 2.0 6.0 0.00 0.03 0.03 90 1017.6
20260906024551 66 51 2.0 4.0 0.00 0.03 0.03 91 1017.7
20260906023055 66 20 1.0 3.0 0.00 0.03 0.03 91 1017.7
20260906021554 66 13 1.0 4.0 0.00 0.03 0.03 90 1017.6
20260906020051 66 55 1.0 5.0 0.00 0.03 0.03 89 1017.6
20260906014638 66 55 2.0 4.0 0.00 0.03 0.03 89 1017.6
20260906013101 66 55 0.0 3.0 0.00 0.03 0.03 90 1017.5
20260906011603 66 77 2.0 4.0 0.00 0.03 0.03 88 1017.2
20260906010050 67 77 1.0 2.0 0.00 0.03 0.03 86 1017.4
20260906004606 67 77 0.0 2.0 0.00 0.03 0.03 86 1017.4
20260906003112 68 77 0.0 3.0 0.00 0.03 0.03 86 1017.4
20260906001556 69 77 2.0 4.0 0.00 0.03 0.03 85 1017.3
20260906000056 69 99 5.0 10.0 0.00 0.03 0.03 82 1017.5
20260905234551 70 92 3.0 10.0 0.00 0.03 0.03 82 1017.4
20260905233047 70 90 5.0 9.0 0.00 0.03 0.03 80 1017.3
20260905231558 71 52 3.0 7.0 0.00 0.03 0.03 82 1017.3
20260905230057 71 22 4.0 9.0 0.00 0.03 0.03 81 1017.4